Wind_Speed
25 24 24 23 23 23 23 24 23 22 22 22 22 22 22 22 23 24 24 24 24 24 23 23 23 23 23 22 23 23 23 22 22 21 21 20 19 19
25 25 25 24 24 24 25 25 24 23 22 22 23 23 24 23 23 24 24 25 25 25 25 25 25 25 25 25 25 25 25 24 23 23 21 21 21 20
27 27 26 26 26 26 25 24 24 24 23 23 24 24 25 25 25 24 25 26 26 26 27 27 27 27 27 27 27 26 26 25 23 23 23 22 22 21
28 28 27 27 27 26 25 25 25 25 24 23 24 25 25 25 26 26 26 26 27 26 26 27 28 28 28 28 27 27 26 25 24 24 24 24 23 23
28 28 28 27 25 25 26 26 26 26 25 25 25 25 25 26 26 27 27 27 27 27 28 28 27 28 28 29 28 27 26 26 26 26 25 25 24 24
28 28 27 27 27 26 27 27 27 27 27 27 27 27 27 27 28 28 28 28 28 28 28 28 28 28 29 29 28 28 27 27 27 26 26 25 25 25
29 28 28 27 27 27 28 28 29 29 29 30 29 29 29 29 30 30 29 29 30 29 29 29 30 30 30 29 28 28 28 28 28 27 26 26 26 25
30 30 30 30 29 29 31 31 31 32 32 32 32 32 31 31 31 31 31 31 30 30 30 30 31 30 30 30 29 29 29 29 28 28 27 27 27 27
30 31 32 32 31 31 31 32 33 34 34 34 33 33 33 32 33 33 33 32 31 31 32 31 31 31 31 30 30 30 30 29 29 28 28 28 27 27
31 31 32 32 32 32 33 33 34 34 34 34 33 33 33 33 33 33 32 32 32 32 33 32 32 32 31 31 30 30 30 29 29 29 28 28 28 28
32 33 33 32 33 33 33 33 33 33 33 33 33 33 33 33 33 33 32 32 32 31 32 32 32 32 31 31 31 31 30 30 30 29 30 29 29 29
33 34 33 33 32 32 33 32 32 31 32 32 33 34 34 34 33 33 33 32 32 31 31 32 31 32 32 32 32 32 32 32 30 30 30 30 30 30
34 34 33 32 32 32 32 33 32 32 32 32 33 34 34 34 33 33 33 32 32 32 32 32 32 32 32 33 33 34 33 32 32 31 31 31 31 30
33 32 32 32 32 32 33 33 33 33 33 33 33 34 34 34 34 34 33 33 34 34 33 33 33 33 33 33 34 34 33 33 32 32 32 31 31 31
32 32 32 32 32 32 33 33 33 34 34 34 34 33 33 34 34 34 34 35 35 35 35 34 34 33 33 33 33 34 34 33 33 32 32 32 33 33
32 32 32 33 33 33 33 33 34 34 33 34 34 34 34 34 34 35 35 35 35 35 35 34 34 33 33 33 33 33 34 33 33 33 33 34 34 34
33 33 33 33 34 34 34 34 34 34 34 34 34 34 34 34 34 34 34 34 34 33 33 33 33 32 32 32 32 31 32 33 33 32 33 33 33 33
33 34 34 34 34 34 34 34 34 34 34 34 34 34 35 35 34 34 34 33 33 32 32 32 32 31 31 31 31 31 31 32 33 32 32 32 32 33
33 34 35 34 34 34 34 34 34 34 33 32 32 33 33 33 33 33 33 32 32 31 31 30 30 30 30 29 29 30 30 30 31 31 31 31 32 32
34 34 35 35 34 33 33 33 33 33 32 32 31 31 31 32 31 31 31 30 30 29 28 28 28 28 29 29 28 28 29 28 29 29 30 31 31 31
34 34 35 34 33 32 32 32 32 31 31 31 31 30 30 29 29 29 29 28 27 27 26 26 26 27 28 28 27 27 27 28 28 29 29 30 30 30
34 33 33 32 32 31 30 30 30 29 29 29 29 29 28 28 27 27 27 27 26 26 25 25 25 25 26 26 26 26 27 27 28 28 28 28 29 29
32 32 31 30 29 29 29 28 28 27 27 27 26 26 26 26 25 25 25 25 25 25 24 24 23 23 23 24 24 25 25 26 27 28 28 28 29 30
Wind_Direction
292 291 292 292 290 290 289 288 287 283 280 279 275 272 270 272 271 271 272 270 269 267 264 264 265 264 264 264 264 265 265 264 264 263 261 260 260 262
292 292 291 290 290 290 289 288 286 283 280 278 276 272 271 273 271 271 271 269 268 266 264 264 265 266 267 265 266 266 265 264 265 263 260 259 259 259
292 292 290 288 288 288 287 287 286 283 281 278 278 274 275 272 272 272 270 268 267 265 263 262 264 266 267 266 265 266 265 263 263 262 260 258 258 257
293 292 290 288 286 285 285 286 285 283 280 277 278 276 273 273 273 273 272 269 267 264 263 264 264 265 265 266 267 267 266 264 263 262 259 258 257 255
292 292 290 288 286 284 284 285 284 282 279 278 277 275 274 274 274 274 273 272 269 266 265 265 265 266 267 268 267 266 265 265 265 262 260 259 256 254
291 291 290 287 286 286 285 284 282 281 279 277 275 275 274 275 275 275 275 272 270 268 266 264 263 264 265 265 264 263 263 265 265 263 261 258 256 254
290 291 290 287 284 284 284 284 282 281 279 277 276 275 276 276 275 275 274 273 271 269 267 265 262 262 263 263 262 262 263 263 262 262 261 258 256 255
289 290 289 286 285 284 285 284 282 281 280 278 277 277 277 276 275 274 274 273 272 269 266 263 263 263 263 262 262 262 261 261 261 261 260 258 257 257
289 289 289 287 286 284 284 284 283 282 280 279 278 278 277 277 276 275 274 273 271 269 266 264 263 263 263 261 259 259 258 258 259 259 259 259 258 257
290 290 289 287 286 285 283 284 283 282 280 279 278 277 276 276 276 276 275 274 273 270 267 265 264 264 262 259 257 256 257 257 258 259 258 258 257 255
289 290 289 287 286 285 284 284 283 282 279 277 277 277 276 276 276 276 275 275 274 271 268 266 264 262 260 258 255 255 257 258 259 258 257 256 256 255
289 290 287 285 284 285 284 283 283 282 281 279 278 277 276 276 276 275 275 275 273 271 268 267 265 262 260 257 255 254 255 256 258 258 258 256 255 253
288 288 286 285 283 284 284 284 283 282 282 281 279 277 277 276 275 275 275 274 273 271 269 267 265 263 262 258 254 253 254 254 256 256 256 255 254 253
286 285 285 285 284 285 285 285 284 283 283 281 280 278 276 275 274 273 273 273 272 270 268 266 265 264 262 260 256 253 253 254 255 255 255 254 252 252
285 284 285 285 284 284 284 284 284 283 283 282 279 278 277 275 274 273 273 272 270 268 266 266 266 264 262 261 258 254 252 253 254 254 254 254 253 252
285 284 285 286 285 285 284 284 284 283 282 281 280 278 277 275 274 274 272 272 270 268 266 265 265 264 262 261 259 255 252 252 254 254 254 254 253 252
286 285 285 287 286 285 285 284 284 283 281 281 280 279 277 277 276 275 273 272 270 268 267 266 265 263 261 261 258 254 251 251 252 253 253 253 252 252
286 286 287 287 287 284 284 285 285 284 283 281 280 278 278 277 277 276 275 274 272 270 266 265 264 261 260 259 256 252 251 250 251 251 251 252 251 251
286 287 287 288 288 286 285 284 284 283 282 281 280 279 278 278 277 276 275 273 272 270 266 263 262 259 258 257 253 250 249 250 250 250 251 251 251 250
287 287 288 288 288 286 285 284 283 283 281 280 280 279 278 277 276 275 275 272 270 269 265 261 260 260 259 256 252 249 248 248 249 248 248 249 249 249
288 288 288 287 287 286 285 284 283 281 280 279 279 279 279 278 277 276 274 270 268 266 264 261 260 260 260 257 252 249 248 248 247 247 246 245 246 247
288 288 288 286 286 285 285 284 282 281 280 280 280 280 279 277 276 275 271 267 266 264 263 261 261 261 260 257 253 251 249 248 247 247 244 244 245 245
288 289 288 285 283 284 284 283 282 281 281 280 280 280 280 278 277 275 271 268 265 264 262 261 261 260 259 257 254 250 248 247 247 247 245 245 246 245
Height
5782 5780 5778 5777 5775 5774 5772 5772 5772 5771 5772 5771 5772 5773 5774 5775 5776 5777 5778 5779 5780 5780 5781 5782 5782 5783 5783 5784 5785 5785 5786 5786 5787 5787 5788 5789 5790 5790
5775 5774 5772 5770 5769 5767 5766 5765 5764 5764 5765 5765 5765 5766 5766 5768 5769 5770 5770 5771 5772 5773 5774 5774 5775 5776 5776 5777 5777 5778 5778 5779 5779 5780 5781 5782 5783 5784
5769 5767 5765 5763 5762 5760 5759 5758 5758 5757 5758 5759 5759 5759 5759 5760 5761 5762 5763 5763 5764 5765 5766 5766 5767 5768 5768 5769 5769 5770 5770 5771 5771 5772 5774 5775 5776 5777
5762 5760 5758 5756 5755 5753 5752 5752 5751 5751 5751 5752 5752 5752 5752 5752 5753 5754 5755 5755 5756 5757 5758 5758 5759 5760 5760 5760 5761 5761 5761 5762 5764 5765 5766 5767 5768 5769
5754 5752 5750 5749 5748 5746 5745 5745 5744 5743 5744 5744 5744 5745 5745 5745 5745 5746 5746 5747 5747 5748 5749 5750 5750 5751 5752 5752 5752 5753 5753 5754 5755 5756 5757 5758 5760 5762
5746 5744 5743 5741 5740 5739 5738 5737 5736 5736 5736 5736 5737 5737 5737 5737 5737 5737 5737 5738 5739 5739 5740 5741 5742 5742 5743 5743 5744 5744 5745 5746 5746 5747 5748 5750 5752 5753
5738 5737 5735 5734 5732 5731 5730 5729 5728 5728 5727 5727 5728 5728 5728 5728 5729 5728 5729 5729 5730 5730 5731 5732 5733 5733 5733 5734 5734 5735 5736 5737 5738 5739 5740 5741 5743 5745
5730 5729 5727 5726 5725 5723 5722 5721 5720 5719 5718 5718 5718 5718 5718 5718 5718 5718 5719 5719 5720 5721 5720 5722 5722 5723 5724 5725 5726 5726 5727 5728 5729 5731 5732 5733 5735 5736
5722 5720 5718 5717 5715 5714 5713 5711 5710 5709 5708 5708 5708 5708 5708 5707 5708 5708 5708 5708 5709 5709 5709 5711 5712 5713 5714 5715 5716 5718 5719 5720 5721 5722 5723 5725 5726 5727
5713 5711 5710 5708 5706 5705 5703 5702 5700 5699 5698 5697 5697 5697 5696 5696 5696 5696 5696 5697 5697 5697 5698 5700 5701 5702 5704 5705 5706 5708 5709 5710 5712 5713 5714 5716 5717 5719
5704 5702 5700 5698 5697 5695 5693 5692 5691 5689 5688 5687 5687 5686 5686 5686 5685 5685 5686 5686 5687 5687 5687 5688 5690 5691 5693 5695 5696 5698 5699 5701 5702 5704 5705 5707 5708 5710
5695 5693 5691 5688 5687 5685 5683 5682 5681 5680 5678 5678 5677 5676 5675 5675 5675 5675 5675 5675 5676 5677 5677 5677 5679 5680 5682 5684 5686 5688 5689 5691 5693 5694 5696 5698 5699 5701
5685 5683 5681 5679 5677 5675 5674 5672 5671 5670 5669 5667 5666 5666 5665 5665 5665 5664 5664 5664 5665 5666 5667 5667 5668 5669 5671 5673 5675 5677 5679 5681 5683 5685 5686 5688 5690 5692
5675 5673 5671 5669 5668 5666 5665 5663 5661 5660 5659 5657 5656 5656 5655 5655 5654 5654 5654 5654 5654 5655 5655 5655 5657 5658 5659 5661 5664 5667 5669 5671 5673 5675 5676 5678 5680 5682
5665 5664 5662 5660 5658 5657 5655 5653 5652 5650 5648 5647 5646 5645 5644 5644 5643 5643 5643 5643 5643 5643 5644 5645 5646 5647 5648 5650 5652 5655 5658 5660 5662 5664 5667 5668 5670 5672
5656 5654 5652 5651 5649 5647 5645 5644 5642 5640 5638 5637 5636 5635 5634 5633 5633 5632 5632 5632 5632 5633 5633 5634 5635 5636 5637 5639 5641 5644 5647 5650 5652 5654 5656 5658 5660 5662
5646 5644 5643 5641 5639 5637 5635 5633 5632 5630 5628 5627 5625 5625 5624 5623 5622 5621 5621 5621 5621 5622 5623 5623 5624 5625 5626 5628 5630 5633 5636 5639 5641 5643 5645 5648 5650 5652
5637 5635 5633 5631 5629 5627 5625 5623 5622 5620 5618 5616 5615 5614 5613 5612 5611 5611 5610 5610 5610 5611 5612 5613 5613 5614 5616 5618 5620 5622 5625 5628 5631 5633 5635 5638 5640 5642
5627 5625 5623 5621 5618 5616 5614 5613 5611 5609 5607 5606 5605 5603 5602 5602 5601 5600 5599 5599 5600 5600 5601 5602 5603 5604 5605 5608 5610 5612 5615 5618 5620 5623 5625 5628 5630 5632
5616 5614 5612 5610 5608 5606 5604 5602 5600 5598 5597 5596 5594 5593 5592 5591 5591 5590 5589 5589 5590 5590 5591 5592 5593 5594 5596 5598 5600 5602 5604 5607 5610 5612 5615 5617 5620 5622
5606 5604 5601 5599 5597 5595 5593 5591 5590 5588 5587 5585 5584 5583 5582 5581 5581 5580 5580 5580 5580 5581 5582 5583 5584 5585 5586 5588 5591 5593 5596 5598 5600 5603 5605 5607 5610 5613
5595 5593 5591 5589 5587 5585 5583 5581 5579 5578 5577 5576 5575 5574 5573 5572 5571 5571 5571 5571 5572 5572 5573 5574 5575 5576 5578 5580 5582 5585 5587 5589 5591 5593 5596 5599 5601 5604
5585 5583 5581 5578 5577 5575 5573 5572 5570 5569 5567 5566 5565 5565 5564 5563 5562 5562 5562 5563 5563 5564 5565 5566 5567 5568 5569 5571 5573 5576 5578 5580 5582 5584 5587 5589 5592 5595